GW4166 Weather Reports


time (UTC)temp
C
wind
direction
speed
KPH
gust
KPH
rain 1hr
cm
rain 24hr
cm
rain mn
cm
humidity
%
barometer
mb
20260507231529 10 298 3.2 6.4 0.00 0.00 0.00 54 1010.0
20260507230030 11 282 3.2 8.0 0.00 0.00 0.00 51 1009.6
20260507224530 11 261 1.6 6.4 0.00 0.00 0.00 50 1009.5
20260507223030 12 314 3.2 9.7 0.00 0.00 0.00 48 1009.4
20260507221536 12 294 1.6 4.8 0.00 0.00 0.00 47 1009.2
20260507220028 13 285 1.6 8.0 0.00 0.00 0.00 45 1009.1
20260507214532 13 281 3.2 6.4 0.00 0.00 0.00 45 1009.0
20260507213031 12 303 1.6 6.4 0.00 0.00 0.00 45 1009.0
20260507211526 13 281 3.2 9.7 0.00 0.00 0.00 44 1009.0
20260507210030 13 270 3.2 8.0 0.00 0.00 0.00 45 1008.9
20260507204528 12 253 1.6 8.0 0.00 0.00 0.00 45 1008.9
20260507203040 13 260 1.6 8.0 0.00 0.00 0.00 43 1008.9
20260507201532 12 238 1.6 6.4 0.00 0.00 0.00 47 1009.0
20260507200031 13 248 3.2 6.4 0.00 0.00 0.00 46 1009.0
20260507194531 13 267 3.2 8.0 0.00 0.00 0.00 43 1009.2
20260507193030 13 277 1.6 4.8 0.00 0.00 0.00 47 1009.2
20260507191532 13 257 1.6 8.0 0.00 0.00 0.00 47 1009.4
20260507190028 12 248 1.6 4.8 0.00 0.00 0.00 48 1009.5
20260507184527 12 269 1.6 4.8 0.00 0.00 0.00 49 1009.6
20260507183056 12 264 1.6 6.4 0.00 0.00 0.00 49 1009.6
20260507181528 13 257 1.6 6.4 0.00 0.00 0.00 46 1009.6
20260507180031 13 0 0.0 6.4 0.00 0.00 0.00 49 1009.6
20260507174539 12 268 1.6 6.4 0.00 0.00 0.00 47 1009.7
20260507173051 13 240 0.0 6.4 0.00 0.00 0.00 48 1010.1
20260507171529 12 303 1.6 4.8 0.00 0.00 0.00 52 1010.4
20260507170036 12 204 1.6 4.8 0.00 0.00 0.00 50 1010.5
20260507164533 11 240 0.0 3.2 0.00 0.00 0.00 52 1010.5
20260507163029 11 0 0.0 4.8 0.00 0.00 0.00 51 1010.8
20260507161539 12 303 0.0 6.4 0.00 0.00 0.00 52 1010.9
20260507160030 13 195 1.6 6.4 0.00 0.00 0.00 45 1010.8
20260507154529 12 238 1.6 4.8 0.00 0.00 0.00 47 1011.1
20260507153028 12 278 1.6 6.4 0.00 0.00 0.00 51 1011.1
20260507151528 11 248 1.6 4.8 0.00 0.00 0.00 52 1011.3
20260507150037 10 260 0.0 6.4 0.00 0.00 0.00 52 1011.4
20260507144531 11 248 1.6 6.4 0.00 0.00 0.00 51 1011.5
20260507143028 11 285 1.6 4.8 0.00 0.00 0.00 54 1011.7
20260507141545 11 234 1.6 9.7 0.00 0.00 0.00 52 1011.8
20260507140028 11 279 1.6 4.8 0.00 0.00 0.00 58 1012.0
20260507134528 10 219 0.0 3.2 0.00 0.00 0.00 63 1012.1
20260507133047 9 0 0.0 3.2 0.00 0.00 0.00 70 1012.1
20260507131529 7 213 0.0 3.2 0.00 0.00 0.00 78 1012.2
20260507130034 6 160 0.0 3.2 0.00 0.00 0.00 80 1012.1
20260507124529 5 151 0.0 3.2 0.00 0.00 0.00 82 1012.3
20260507123037 4 120 1.6 3.2 0.00 0.00 0.00 84 1012.2
20260507121528 3 133 1.6 3.2 0.00 0.00 0.00 84 1012.2
20260507120034 3 145 1.6 3.2 0.00 0.00 0.00 86 1012.3
20260507114528 2 124 1.6 3.2 0.00 0.00 0.00 89 1012.3
20260507113034 2 147 1.6 3.2 0.00 0.00 0.00 90 1012.0
20260507111529 2 157 0.0 3.2 0.00 0.00 0.00 90 1012.1
20260507110037 2 0 0.0 0.0 0.00 0.00 0.00 90 1012.1
20260507104531 2 0 0.0 0.0 0.00 0.00 0.00 90 1012.0
20260507103031 2 0 0.0 0.0 0.00 0.00 0.00 89 1011.8
20260507101534 2 0 0.0 0.0 0.00 0.00 0.00 87 1011.8
20260507100030 2 0 0.0 0.0 0.00 0.00 0.00 86 1011.7
20260507094533 3 0 0.0 0.0 0.00 0.00 0.00 85 1011.5
20260507093028 3 0 0.0 0.0 0.00 0.00 0.00 78 1011.6
20260507091532 3 0 0.0 0.0 0.00 0.00 0.00 77 1011.8
20260507090029 3 0 0.0 0.0 0.00 0.00 0.00 75 1011.8
20260507084528 3 0 0.0 0.0 0.00 0.00 0.00 76 1011.8
20260507083030 3 0 0.0 3.2 0.00 0.00 0.00 77 1011.8
20260507081536 4 0 0.0 1.6 0.00 0.00 0.00 81 1012.0
20260507080030 4 0 0.0 0.0 0.00 0.00 0.00 77 1012.0
20260507074530 4 0 0.0 0.0 0.00 0.00 0.00 77 1012.1
20260507073028 4 0 0.0 0.0 0.00 0.00 0.00 78 1011.9
20260507071529 4 0 0.0 0.0 0.00 0.00 0.00 77 1012.0
20260507070039 5 0 0.0 0.0 0.00 0.00 0.00 79 1012.0
20260507064529 5 0 0.0 0.0 0.00 0.00 0.00 75 1012.1
20260507063026 5 0 0.0 0.0 0.00 0.00 0.00 77 1012.3
20260507061528 5 0 0.0 0.0 0.00 0.00 0.00 76 1012.3
20260507060030 5 0 0.0 0.0 0.00 0.00 0.00 73 1012.3
20260507054529 5 0 0.0 0.0 0.00 0.00 0.00 74 1012.5
20260507053030 6 0 0.0 0.0 0.00 0.00 0.00 73 1012.7
20260507051529 6 0 0.0 1.6 0.00 0.00 0.00 71 1012.8
20260507050032 6 0 0.0 3.2 0.00 0.00 0.00 70 1012.9
20260507044529 6 289 0.0 3.2 0.00 0.00 0.00 71 1012.9
20260507043028 6 292 0.0 3.2 0.00 0.00 0.00 71 1012.8
20260507041527 6 299 0.0 3.2 0.00 0.00 0.00 71 1013.2
20260507040028 6 287 0.0 3.2 0.00 0.00 0.00 69 1013.0
20260507034539 6 290 0.0 3.2 0.00 0.00 0.00 68 1012.9
20260507033042 6 288 0.0 3.2 0.00 0.00 0.00 68 1012.8
20260507031545 6 299 1.6 3.2 0.00 0.00 0.00 69 1012.8
20260507030030 6 287 0.0 3.2 0.00 0.00 0.00 67 1012.9
20260507024529 6 0 0.0 3.2 0.00 0.00 0.00 66 1012.7
20260507023029 6 292 0.0 3.2 0.00 0.00 0.00 65 1012.7
20260507021530 7 0 0.0 3.2 0.00 0.00 0.00 64 1012.3
20260507020029 7 288 0.0 3.2 0.00 0.00 0.00 63 1012.3
20260507014540 7 300 0.0 4.8 0.00 0.00 0.00 63 1012.3
20260507013036 7 0 0.0 3.2 0.00 0.00 0.00 62 1012.3
20260507011533 7 0 0.0 3.2 0.00 0.00 0.00 60 1012.2
20260507010035 7 294 0.0 3.2 0.00 0.00 0.00 60 1012.3
20260507004527 7 301 1.6 4.8 0.00 0.00 0.00 59 1012.3
20260507003030 8 302 0.0 3.2 0.00 0.00 0.00 59 1012.3
20260507001534 8 298 1.6 6.4 0.00 0.00 0.00 57 1012.7
20260507000028 8 299 1.6 6.4 0.00 0.00 0.00 59 1012.3
20260506234528 8 282 1.6 3.2 0.00 0.00 0.00 61 1012.2
20260506233030 8 288 1.6 4.8 0.00 0.00 0.00 61 1011.9